Location: Newark
(17.9939°S, 31.0481°E)
Time: 09:10:08
(UTC+00:00)

Courier 1B - Pass Details

Date: 12 November 2019
Orbit: 963 x 1209 km, 28.3° (Epoch: 08 December)

Event Time Altitude Azimuth Distance (km) Brightness Sun altitude
Exits shadow 01:10:21 56° 344° (NNW) 1,264 7.7 -27.2°
Drops below altitude 10° 01:16:44 10° 48° (NE) 2,822 10.1 -25.9°
Sets 01:19:24 0° 53° (NE) 3,738 10.8 -25.4°
